Regional Weather Roundup
Issued by NWS

Home | Current Version | Previous Version | Graphics & Text | Print | Product List | Glossary On
Versions: 1 2 3 4 5 6 7 8 9 10 11 12 13 14 15 16 17 18 19 20 21 22 23 24 25 26 27
000
ASUS45 KPSR 201210
RWRAZ

ARIZONA HOURLY REGIONAL WEATHER ROUNDUP
NATIONAL WEATHER SERVICE PHOENIX AZ
500 AM MST SAT JAN 20 2018

NOTE: FAIR INDICATES FEW OR NO CLOUDS BELOW 12,000 FEET WITH NO
SIGNIFICANT WEATHER AND/OR OBSTRUCTIONS TO VISIBILITY.

AZZ001>003-036-201300-
NORTHWEST ARIZONA

CITY           SKY/WX    TMP DP  RH WIND       PRES   REMARKS
BULLHEAD CITY  CLOUDY    61  36  39 S21       29.74F
KINGMAN        CLOUDY    52  34  50 SW23G31   29.77R
6HR MIN TEMP:  52; 6HR MAX TEMP:  58;

$$

AZZ004>008-015-016-018-201300-
NORTH CENTRAL ARIZONA

CITY           SKY/WX    TMP DP  RH WIND       PRES   REMARKS
GRAND CANYON   CLOUDY    39  22  50 S8        29.83F WCI  33
6HR MIN TEMP:  31; 6HR MAX TEMP:  40;

WILLIAMS       CLOUDY    43  21  42 S12G20    29.81F
PRESCOTT       CLOUDY    50  26  39 S17G24    29.81F
6HR MIN TEMP:  43; 6HR MAX TEMP:  50;

FLAGSTAFF      CLOUDY    40  20  44 SW20G33   29.86F WCI  30
6HR MIN TEMP:  26; 6HR MAX TEMP:  40;

PAYSON         CLOUDY    48  18  29 VRB5      29.91S
PAGE           CLOUDY    50  25  37 S9        29.74F
6HR MIN TEMP:  46; 6HR MAX TEMP:  53;

$$

AZZ009>014-017-201300-
NORTHEAST ARIZONA

CITY           SKY/WX    TMP DP  RH WIND       PRES   REMARKS
WINSLOW        PTCLDY    34  15  46 S8        29.87F WCI  27
6HR MIN TEMP:  26; 6HR MAX TEMP:  46;

SAINT JOHNS    PTCLDY    23  11  60 CALM      29.92F
6HR MIN TEMP:  23; 6HR MAX TEMP:  39;

WINDOW ROCK    CLEAR     40  14  34 S8        29.94F WCI  34
6HR MIN TEMP:  35; 6HR MAX TEMP:  43;

SHOW LOW       CLEAR     45  16  31 S22G30    29.92F
$$

AZZ540-542>544-546-548-201300-
GREATER PHOENIX AREA

CITY           SKY/WX    TMP DP  RH WIND       PRES   REMARKS
PHOENIX        PTCLDY    58  28  32 SE13      29.80F
6HR MIN TEMP:  53; 6HR MAX TEMP:  60;

BUCKEYE        CLOUDY    48  32  53 E8        29.81F
LUKE AFB       MOCLDY    48  33  56 CALM      29.80F
6HR MIN TEMP:  47; 6HR MAX TEMP:  52;

DEER VALLEY    CLOUDY    59  24  26 SE13      29.80F
6HR MIN TEMP:  51; 6HR MAX TEMP:  59;

SCOTTSDALE     MOCLDY    57  26  30 E6        29.83F
6HR MIN TEMP:  50; 6HR MAX TEMP:  57;

MESA-GATEWAY   MOCLDY    55  25  30 E7        29.85R
$$

AZZ539-553-201300-
SOUTHWEST MARICOPA COUNTY AND PINAL COUNTY

CITY           SKY/WX    TMP DP  RH WIND       PRES   REMARKS
CASA GRANDE    NOT AVBL
GILA BEND      FAIR      59  43  56 S9        29.81F
6HR MIN TEMP:  53; 6HR MAX TEMP:  66;

$$

AZZ503-504-507>509-201300-
SOUTHEAST ARIZONA

CITY           SKY/WX    TMP DP  RH WIND       PRES   REMARKS
TUCSON         CLEAR     52  20  28 E3        29.93S
6HR MIN TEMP:  50; 6HR MAX TEMP:  57;

DAVIS-MONTHAN  PTCLDY    51  17  26 SE7       29.91S
6HR MIN TEMP:  50; 6HR MAX TEMP:  53;

NOGALES        CLEAR     49  21  33 S7        29.96S
6HR MIN TEMP:  47; 6HR MAX TEMP:  55;

SIERRA VISTA   CLEAR     55  17  22 S8        29.99S
6HR MIN TEMP:  49; 6HR MAX TEMP:  59;

DOUGLAS        CLEAR     45  20  36 VRB6      29.98F
6HR MIN TEMP:  39; 6HR MAX TEMP:  48;

SAFFORD        CLEAR     36  15  42 NW7       29.92S WCI  30
6HR MIN TEMP:  36; 6HR MAX TEMP:  48;

$$

AZZ532-201300-
SOUTHWEST ARIZONA

CITY           SKY/WX    TMP DP  RH WIND       PRES   REMARKS
YUMA           CLOUDY    58  38  47 W18G32    29.86R
6HR MIN TEMP:  58; 6HR MAX TEMP:  63;

$$

CAZ041-043-047-048-061-525>527-560>570-201300-
SOUTHERN CALIFORNIA

CITY           SKY/WX    TMP DP  RH WIND       PRES   REMARKS
DOWNTOWN L.A.  MOCLDY    54  31  41 VRB7      29.92S
6HR MIN TEMP:  53; 6HR MAX TEMP:  56;

L.A. AIRPORT   MOCLDY    54  33  45 NW8       29.94R
6HR MIN TEMP:  54; 6HR MAX TEMP:  57; 6HR PCP: TRACE;

SAN DIEGO      MOCLDY    57  44  62 W15       29.99S
6HR MIN TEMP:  57; 6HR MAX TEMP:  58;

BURBANK        MOCLDY    51  32  48 NW8       29.92S
6HR MIN TEMP:  51; 6HR MAX TEMP:  55;

ONTARIO        MOCLDY    50  45  83 CALM      29.90S
6HR MIN TEMP:  49; 6HR MAX TEMP:  54; 6HR PCP:  0.11;

RIVERSIDE      LGT RAIN  50  46  86 CALM      29.90F
6HR MIN TEMP:  50; 6HR MAX TEMP:  53; 6HR PCP:  0.01;

PALM SPRINGS   LGT RAIN  57  40  52 NW13G22   29.86S
6HR MIN TEMP:  56; 6HR MAX TEMP:  63; 6HR PCP: TRACE;

EL CENTRO NAS  LGT RAIN  57  32  38 SW29G35   29.90S
6HR MIN TEMP:  57; 6HR MAX TEMP:  66; 6HR PCP: TRACE;

IMPERIAL       PTCLDY    57  36  45 W14       29.88R
6HR MIN TEMP:  57; 6HR MAX TEMP:  66;

BLYTHE         PTCLDY    60  31  33 W13       29.81R
6HR MIN TEMP:  59; 6HR MAX TEMP:  65;

NEEDLES        CLOUDY    60  36  40 W6        29.78R
6HR MIN TEMP:  60; 6HR MAX TEMP:  69;

$$

NVZ020-UTZ003-201300-
SOUTHERN NEVADA-UTAH

CITY           SKY/WX    TMP DP  RH WIND       PRES   REMARKS
LAS VEGAS      MOCLDY    52  35  52 SW10      29.75S
6HR MIN TEMP:  52; 6HR MAX TEMP:  60;

SALT LAKE CITY LGT SNOW  33  31  92 NW8       29.88F FOG     WCI  26
6HR MIN TEMP:  32; 6HR MAX TEMP:  34; 6HR PCP:  0.16;

$$

NMZ009-TXZ055-201300-
NEW MEXICO-WEST TEXAS

CITY           SKY/WX    TMP DP  RH WIND       PRES   REMARKS
ALBUQUERQUE    PTCLDY    34  13  41 CALM      29.98S
6HR MIN TEMP:  32; 6HR MAX TEMP:  41;

EL PASO        MOCLDY    37  19  48 CALM      29.97F
6HR MIN TEMP:  36; 6HR MAX TEMP:  47;

$$


........................KEY........................
SKY/WX - SKY CONDITION/WEATHER
TMP    - TEMPERATURE IN FAHRENHEIT
DP     - DEW POINT IN FAHRENHEIT
RH     - RELATIVE HUMIDITY IN PERCENT
WIND   - DIRECTION AND SPEED IN MILES PER HOUR (MPH)
VRB    - VARIABLE WIND DIRECTION
PRES   - MEAN SEA LEVEL PRESSURE IN INCHES OF MERCURY
         F - FALLING PRESSURE   R - RISING PRESSURE
         S - STEADY PRESSURE
VSB    - VISIBILITY IN MILES
HX     - HEAT INDEX IN FAHRENHEIT
WCI    - WIND CHILL INDEX IN FAHRENHEIT
TC     - TEMPERATURE IN CELSIUS WHICH IS ALSO KNOWN AS
         TEMPERATURE IN CENTIGRADE
AFB    - AIR FORCE BASE
         LUKE AFB IS LUKE AIR FORCE BASE
         DAVIS-MONTHAN IS DAVIS-MONTHAN AIR FORCE BASE
NAS    - NAVAL AIR STATION
         EL CENTRO NAS IS EL CENTRO NAVAL AIR STATION
N/A    - NOT AVAILABLE





USA.gov is the U.S. government's official web portal to all federal, state and local government web resources and services.